Theta_e
349 349 348 349 349 351 351 351 351 352 352 352 351 350 350 349 348 346 345 345 343 342 342 344 347 349 350 350 349 349 351 353 352 351 350 351 352 352 352 353 353 352 351 350 347 345 344 346 346 345 345 342 339 337 333 334 336 338 335 324 328 337 335 334 334 335 338 338 338 338 336 337 336 336 337 337 339 340 341 342 341 340 339 338 337
348 348 347 348 349 350 351 352 352 352 352 352 350 349 349 350 348 345 344 345 345 342 341 342 343 345 347 346 346 347 350 351 350 351 351 351 352 352 352 352 353 353 352 351 348 346 345 346 346 344 343 342 339 336 333 332 330 328 324 322 332 338 334 334 333 334 339 338 338 339 338 338 339 340 340 339 340 341 340 340 338 338 337 336 333
347 348 347 348 349 350 350 351 352 352 352 351 350 349 349 349 348 346 345 345 347 345 342 341 341 342 343 342 342 343 346 346 348 351 352 352 352 351 351 352 353 353 353 352 349 347 346 345 345 344 343 341 338 335 332 327 321 318 319 324 333 335 331 332 334 333 333 335 338 340 339 339 340 340 340 340 340 340 339 338 338 337 335 333 332
346 347 347 347 348 349 349 349 350 351 351 350 350 350 349 348 348 348 347 347 348 348 345 342 340 341 342 341 340 341 343 344 346 350 352 352 351 349 350 351 353 354 353 351 349 347 347 345 345 344 343 341 337 336 331 322 317 317 320 326 334 334 330 332 335 333 329 330 334 337 339 339 340 339 339 339 339 339 338 337 337 334 332 330 330
346 347 347 347 347 348 348 348 348 349 350 350 350 350 349 348 347 348 349 349 349 349 347 346 343 341 342 343 343 344 345 344 345 349 351 351 349 347 348 351 353 354 353 350 348 347 347 346 345 344 344 341 338 336 327 319 319 321 324 329 333 333 332 334 335 331 328 329 333 337 339 340 340 338 337 338 338 338 336 334 332 330 329 329 328
346 346 345 347 347 347 348 347 348 349 349 349 349 350 349 349 347 347 349 350 350 349 349 348 347 343 341 342 343 344 344 343 344 346 347 349 347 345 347 351 353 354 352 350 347 347 348 347 345 345 344 340 339 336 323 316 320 324 327 330 333 333 332 336 336 332 329 328 331 336 339 339 339 338 337 336 336 336 335 332 331 329 329 328 327
345 345 345 346 347 347 347 347 348 348 348 349 349 349 349 349 348 348 348 350 350 350 349 349 348 346 341 338 338 339 339 339 341 343 344 345 345 345 346 351 354 354 353 350 346 347 349 347 345 344 343 340 341 336 321 316 320 323 326 329 334 336 334 335 336 334 331 328 328 332 337 339 339 338 337 336 336 335 334 332 331 330 328 328 328
345 346 345 346 347 347 347 347 348 348 348 348 349 349 350 349 348 348 348 350 350 350 350 349 347 346 343 338 336 336 336 337 340 342 344 344 345 345 347 351 354 353 353 350 346 346 347 347 344 343 343 341 341 334 319 316 319 322 325 328 333 337 337 335 333 333 333 331 329 328 333 339 339 337 338 337 336 335 334 333 332 331 329 329 328
345 345 346 346 346 346 347 347 347 348 348 348 348 349 349 349 349 348 348 349 350 350 350 349 345 344 343 339 336 336 335 336 338 342 344 346 347 348 350 353 353 353 352 350 347 346 345 345 343 342 342 340 335 326 317 316 319 320 323 326 330 333 337 337 332 331 333 332 331 328 329 332 333 333 335 336 336 335 335 335 334 331 329 329 329
345 345 345 345 345 346 346 346 347 347 347 347 347 348 348 349 350 349 348 349 350 350 350 349 346 343 342 339 337 337 337 336 338 342 344 347 350 352 352 352 353 352 351 350 348 347 346 344 342 341 342 339 326 318 316 316 318 321 322 325 329 331 336 338 333 331 331 330 330 330 328 326 326 326 328 331 333 334 335 335 334 332 329 328 329
345 345 346 345 345 345 345 346 346 347 347 347 347 348 348 349 349 350 349 349 349 349 350 349 347 344 342 339 338 339 339 339 340 342 344 347 351 353 353 352 351 350 350 350 349 349 347 344 341 341 342 339 326 315 316 317 318 320 320 323 329 331 333 334 332 331 332 331 329 331 330 326 323 323 324 327 328 330 333 334 334 333 330 329 330
345 345 346 346 345 346 346 346 347 347 347 348 348 348 348 348 349 349 350 350 350 349 349 349 348 346 342 339 337 338 341 342 342 342 343 345 349 351 352 351 351 350 350 350 349 349 348 344 341 341 340 339 329 318 315 319 320 320 320 322 326 330 330 330 329 330 334 334 331 331 329 326 326 327 327 330 329 329 332 333 333 333 331 331 331
344 345 346 346 346 346 346 346 347 347 348 347 348 348 348 348 348 349 349 350 350 350 350 349 349 347 343 339 337 337 340 342 342 342 341 343 347 349 350 349 349 349 349 348 348 349 348 344 340 340 339 335 328 319 316 319 322 320 320 321 322 326 328 328 328 330 332 332 331 331 327 324 328 330 331 334 334 333 333 332 332 332 331 333 333
343 344 345 346 346 346 346 347 347 347 347 348 348 348 348 348 348 348 349 349 350 350 350 350 348 346 343 339 336 336 338 340 341 342 341 341 344 347 346 345 346 346 344 343 345 348 347 343 339 339 339 332 325 319 316 319 321 320 322 323 320 322 326 328 328 329 329 328 328 330 327 324 327 330 331 333 333 333 333 332 330 330 329 330 332
343 344 344 345 345 346 346 346 347 347 347 348 348 348 348 348 348 349 349 349 350 350 350 350 348 346 343 340 337 335 336 337 339 340 341 342 343 344 345 345 344 344 342 340 342 345 345 342 340 339 339 332 322 317 316 318 320 319 322 324 321 320 323 327 328 328 328 327 327 328 328 328 329 331 332 331 330 330 329 329 328 328 328 328 329
343 343 343 344 345 346 346 346 346 347 347 348 348 348 349 349 349 349 349 349 350 350 350 350 349 347 344 341 338 336 336 336 337 338 340 341 342 343 344 345 344 343 342 341 341 343 343 342 340 339 338 334 324 317 316 318 319 319 320 322 321 319 320 323 327 328 327 328 328 328 329 330 330 330 331 331 330 329 327 327 326 326 328 328 328
343 343 343 344 345 345 345 346 346 347 347 348 348 348 349 349 349 350 350 350 350 350 350 349 349 349 346 343 339 338 337 337 337 338 338 340 341 343 344 345 345 343 343 342 342 342 341 341 340 339 338 336 329 320 316 317 318 318 319 320 320 318 318 319 324 327 328 328 329 328 328 331 330 329 329 329 330 329 328 327 327 326 327 328 328
343 345 344 344 345 344 345 346 346 346 347 347 348 348 349 349 349 350 350 351 351 351 351 349 350 350 348 346 342 340 338 337 337 337 338 339 341 342 345 345 345 344 343 343 343 342 342 341 340 340 338 337 334 324 317 317 318 318 319 319 319 319 318 317 319 324 328 328 329 328 327 328 328 328 327 327 328 328 328 328 327 328 328 328 328
345 346 345 345 345 344 345 345 346 346 346 347 348 349 350 350 350 350 349 350 351 351 351 351 350 351 350 348 345 341 340 339 338 338 338 339 340 341 344 345 345 345 344 344 344 343 343 342 340 340 339 338 336 326 317 316 317 318 319 319 318 319 318 317 318 321 326 328 329 328 327 325 326 326 326 326 326 327 327 327 328 328 328 328 329
345 346 346 346 346 345 346 346 346 346 346 347 348 349 350 350 350 351 351 351 351 351 352 352 351 351 351 350 348 345 343 342 341 340 339 339 340 341 342 343 344 345 345 345 344 343 342 342 341 340 340 339 337 328 319 316 317 317 318 318 319 318 317 317 318 320 324 327 328 328 326 324 324 326 326 326 326 326 326 327 327 327 327 328 329
345 346 346 346 346 346 346 346 346 346 347 348 349 349 350 351 351 352 352 352 352 352 352 352 352 352 352 351 350 348 346 345 343 342 341 339 340 341 341 342 343 344 344 344 344 343 342 342 342 341 340 340 338 333 323 317 316 317 317 318 318 318 317 317 318 320 322 325 326 326 324 322 323 324 324 324 325 325 325 325 325 325 325 326 328
345 346 346 346 347 347 347 347 347 348 348 349 349 350 350 351 351 352 352 353 353 352 352 353 353 352 352 352 351 350 348 347 346 344 343 340 340 341 342 342 342 342 343 343 342 342 342 342 343 342 341 340 340 338 329 319 316 316 317 317 317 318 318 318 318 319 321 323 325 325 323 321 322 323 323 323 323 322 323 323 323 324 324 324 326
345 346 346 347 347 347 347 348 348 348 349 349 349 350 350 351 351 352 353 353 353 353 352 353 353 353 353 352 352 352 351 350 348 346 344 341 340 341 342 342 342 342 342 342 342 342 342 343 343 342 342 341 340 341 335 325 317 316 317 317 318 318 318 318 319 319 320 322 323 323 322 321 322 324 324 324 323 322 323 323 324 324 324 325 327
346 345 346 347 346 348 348 348 349 349 349 350 349 350 350 351 352 352 353 353 353 353 353 353 354 353 353 353 353 353 352 352 350 347 344 342 340 341 341 341 342 342 342 342 341 342 342 343 343 343 343 342 341 342 340 332 324 318 316 317 317 318 319 319 319 319 320 321 321 321 321 321 323 326 327 326 324 323 323 323 323 324 325 327 329
346 345 346 347 346 349 348 349 350 349 350 350 350 351 351 351 353 352 353 354 353 354 354 354 354 354 354 354 353 353 353 352 351 347 345 342 341 342 341 341 341 342 342 342 341 342 343 343 344 343 343 343 342 341 341 338 332 322 317 317 317 318 319 319 318 319 319 319 320 320 320 322 326 328 328 327 325 324 323 323 324 326 328 330 331
346 345 345 346 347 349 349 349 350 350 351 351 350 351 351 352 353 353 354 354 354 354 355 355 355 355 355 355 354 353 352 351 350 347 343 342 342 342 340 340 341 341 342 342 342 342 342 343 344 345 344 344 342 341 340 341 337 328 319 316 317 317 319 320 319 318 318 318 319 320 320 323 326 327 327 327 326 324 324 325 326 328 330 332 333
346 345 345 346 347 348 349 350 350 350 351 351 351 351 351 352 353 354 355 355 355 355 355 356 356 356 356 354 353 352 351 349 348 344 342 341 342 341 341 341 341 341 342 341 342 341 341 343 345 346 346 345 343 342 341 341 340 335 325 318 316 317 318 320 319 318 318 318 319 321 320 321 324 326 327 327 327 327 328 327 327 329 331 333 334
346 345 345 345 345 347 349 349 350 351 351 351 351 351 351 352 352 354 355 355 355 356 356 357 357 357 356 355 353 352 349 348 346 343 341 341 342 341 342 342 343 342 341 341 340 341 342 345 347 347 347 346 345 344 343 343 342 340 332 321 316 317 319 321 320 318 318 318 319 321 320 319 322 325 327 327 329 330 330 329 328 330 333 334 334
344 344 345 345 345 346 347 348 349 350 350 351 351 351 352 352 352 353 354 355 356 356 356 357 357 357 356 355 354 352 351 349 348 345 342 342 342 342 342 343 343 343 342 341 341 341 343 345 347 348 348 347 346 344 344 344 343 343 339 328 318 317 319 321 322 320 319 318 319 320 320 320 321 323 327 329 330 331 332 332 332 333 334 334 335
344 344 344 344 345 345 345 347 348 348 350 350 351 351 352 351 352 353 353 355 355 356 356 356 356 356 355 356 355 354 353 352 351 349 345 343 343 343 343 343 343 343 342 342 343 344 345 345 346 348 348 347 347 345 344 345 345 345 343 334 321 316 319 321 321 320 319 319 319 319 320 321 322 324 326 327 328 331 335 335 335 335 336 335 335
343 343 344 344 345 345 344 346 347 347 349 349 350 350 351 351 352 352 353 354 355 355 356 356 356 356 356 357 356 355 355 354 353 351 348 346 346 346 345 344 343 343 343 344 346 346 347 347 348 348 348 348 347 345 345 347 348 347 345 339 328 319 318 320 320 320 320 319 319 320 319 320 324 326 325 326 329 334 336 336 336 336 336 336 335
344 343 344 345 345 345 345 345 346 346 347 348 348 349 350 351 351 351 352 354 354 355 355 354 355 356 357 357 355 355 356 355 354 353 351 350 349 349 349 347 345 345 344 345 347 348 348 349 350 350 350 349 348 347 348 349 349 348 346 345 338 324 317 320 321 320 321 320 319 319 319 321 324 326 327 331 334 335 336 336 336 336 336 335 335
344 344 345 345 345 345 345 345 345 345 345 346 347 348 349 349 349 350 352 354 354 354 354 354 355 356 357 356 355 356 356 355 354 354 353 354 353 353 352 350 347 345 346 348 348 349 350 350 351 351 350 350 350 349 350 351 350 348 347 347 344 332 319 318 320 319 320 321 320 320 321 322 322 326 332 335 334 334 337 337 337 336 335 333 332
343 344 344 345 345 345 344 343 342 342 342 344 346 347 347 348 350 352 353 353 354 354 354 354 355 356 357 356 356 356 356 355 355 355 356 356 355 355 354 352 350 349 349 350 350 350 350 351 351 351 351 351 351 351 352 352 351 351 349 347 345 337 324 319 319 318 319 322 322 321 322 322 323 330 335 335 332 334 338 337 337 335 333 330 329
344 346 345 345 345 344 344 342 340 340 341 343 347 348 348 349 352 353 354 354 354 354 354 355 355 356 357 357 356 356 356 357 357 357 357 357 355 355 355 354 354 353 351 351 350 351 351 351 352 352 352 353 353 353 354 354 352 353 351 346 344 340 330 321 318 317 319 322 324 324 324 325 328 334 336 333 332 334 336 336 336 333 330 327 324
345 345 344 345 345 343 341 340 341 341 341 343 344 346 348 351 353 354 354 354 354 354 354 355 355 356 357 357 357 356 357 358 359 359 358 357 356 355 355 354 355 354 353 353 353 352 352 352 353 354 354 354 355 355 355 354 354 354 350 346 344 342 336 327 320 317 319 323 326 327 328 329 333 338 339 335 333 333 332 332 331 328 327 326 323
349 347 346 346 345 343 342 341 343 342 340 342 343 344 346 350 352 354 354 354 355 355 355 355 356 356 357 357 357 357 357 359 360 360 360 358 358 356 355 354 354 354 354 354 354 354 354 355 355 355 355 356 356 357 356 356 356 355 352 348 346 344 340 333 324 317 319 325 331 332 332 332 334 337 336 333 330 328 327 326 326 325 324 324 323
342 344 345 345 343 342 342 342 343 342 340 342 344 344 345 347 350 353 354 354 355 355 355 355 356 356 357 358 358 358 358 359 361 361 360 359 358 357 355 354 353 353 353 353 354 355 356 357 357 357 357 357 358 358 358 357 357 356 354 352 349 346 342 337 328 320 321 329 334 335 335 335 336 334 329 325 323 323 323 325 326 325 323 323 323
340 339 339 340 340 341 341 343 344 343 342 343 346 347 348 348 350 352 353 355 356 355 355 355 355 356 357 358 359 359 359 360 361 361 360 360 359 357 356 354 354 353 353 353 355 357 358 358 359 359 359 359 359 359 359 358 357 356 354 352 350 346 342 339 334 326 323 325 329 333 336 336 336 333 325 321 321 322 324 326 326 324 323 323 323
346 342 338 337 337 337 339 344 345 345 345 346 346 350 352 352 351 352 354 355 354 353 353 354 355 356 357 358 359 360 360 360 360 361 360 360 359 358 357 356 356 355 355 356 357 358 359 359 359 359 360 360 360 360 359 357 356 355 353 350 348 345 343 341 337 331 327 325 326 332 336 335 334 330 324 320 320 322 325 326 325 324 324 323 325
350 347 343 340 337 335 336 339 341 344 348 350 351 352 352 350 351 354 354 352 350 350 352 354 356 358 358 359 360 360 361 361 361 360 361 360 360 359 359 358 357 357 357 358 358 359 360 360 360 360 360 360 359 359 357 356 355 354 351 347 345 344 342 341 338 335 332 328 328 334 336 333 330 325 321 320 321 322 326 327 325 324 323 323 327
354 353 349 343 338 337 336 337 339 339 341 346 351 354 353 351 352 352 348 343 345 349 353 355 357 358 359 359 360 360 361 362 362 361 361 361 361 360 360 359 358 358 359 359 360 360 361 360 360 360 360 359 358 357 356 356 355 352 348 345 344 343 342 341 340 337 332 327 330 336 335 328 324 322 321 321 321 323 326 326 323 323 324 328 333
359 359 358 355 352 348 343 340 340 341 341 341 344 350 354 357 358 354 349 348 349 352 355 356 358 359 359 359 359 360 362 363 363 362 361 361 362 361 361 361 360 360 361 361 361 362 361 361 360 359 358 357 356 356 356 356 353 349 346 344 343 343 342 341 338 334 327 324 329 331 328 323 323 322 322 321 323 326 326 324 323 327 331 335 336
359 361 361 361 363 363 357 349 344 344 346 344 343 347 352 356 359 358 358 359 359 358 359 359 359 359 358 358 359 360 362 363 363 362 362 362 362 362 362 361 361 361 362 362 362 362 361 361 360 358 358 357 357 357 357 354 351 348 346 344 343 343 341 337 332 326 321 321 324 325 324 325 325 324 323 324 326 327 325 324 328 332 334 334 332
354 360 362 362 362 365 365 362 357 354 353 352 350 351 353 355 356 358 360 363 363 362 361 361 360 359 359 359 360 362 363 364 363 362 362 363 363 362 362 362 362 363 363 362 362 362 360 360 359 358 358 358 356 356 354 351 348 346 345 344 343 341 337 332 326 322 321 322 325 326 327 326 325 325 326 327 327 326 327 329 332 333 331 329 327
349 355 359 360 361 362 362 363 364 364 365 363 361 360 360 361 360 360 361 362 362 363 363 362 362 362 361 362 363 365 366 365 363 362 363 363 363 363 362 363 363 363 362 362 360 359 359 358 357 358 358 356 354 353 351 349 347 346 344 342 340 337 332 327 324 324 325 328 330 329 326 325 325 327 327 326 326 328 331 333 332 329 326 324 322
350 351 353 355 359 360 359 359 360 362 365 367 367 367 367 366 365 365 364 364 363 363 364 364 365 365 365 366 366 366 367 366 365 365 365 364 364 364 363 363 362 360 359 359 358 357 357 356 356 356 355 354 353 351 350 348 347 344 341 339 338 334 328 326 327 328 329 331 331 329 326 325 326 326 325 326 330 332 332 330 327 325 324 323 323
352 353 353 354 356 357 357 357 357 358 360 362 365 367 367 367 366 365 364 365 365 365 366 367 368 367 367 367 367 367 367 367 366 366 366 365 365 363 362 359 356 354 355 355 355 355 355 354 354 354 353 353 351 350 349 347 345 342 339 338 336 333 329 329 330 330 331 333 332 329 326 324 324 326 329 332 333 331 329 327 325 324 325 325 325
351 352 353 354 356 357 357 358 357 356 357 357 360 362 364 365 364 364 365 365 366 368 367 366 366 366 363 363 365 368 368 367 366 365 364 363 361 358 356 354 352 352 353 354 354 354 354 354 353 352 352 351 350 349 347 345 343 341 338 336 334 332 331 330 330 331 333 334 331 328 325 324 326 330 333 333 330 328 327 326 326 326 326 326 325
348 349 350 352 354 356 357 357 357 356 356 356 358 360 361 361 360 361 363 363 365 366 362 356 356 358 356 356 360 363 364 364 364 363 361 358 356 354 353 352 353 353 353 353 352 352 352 352 351 349 349 348 347 346 345 343 341 339 337 335 333 331 330 330 331 334 334 331 328 326 326 327 329 332 331 328 326 326 327 326 326 327 327 326 325
345 346 347 348 349 351 354 356 357 357 357 357 357 358 360 361 362 363 365 365 365 363 356 350 349 350 350 352 355 358 359 360 359 358 357 354 353 353 353 352 353 353 353 352 352 351 350 348 347 347 346 346 345 344 343 342 341 338 336 334 333 332 331 332 334 334 331 328 327 327 327 328 329 329 328 326 325 325 326 326 326 327 327 326 324
Wind_Speed
42 42 42 42 42 41 41 40 39 38 36 34 33 33 32 32 33 33 32 31 32 33 32 31 30 28 28 27 26 25 22 20 19 18 16 15 14 13 12 11 10 11 12 11 11 11 11 10 9 8 8 10 10 9 7 7 7 9 10 7 7 8 6 6 7 7 6 6 7 6 7 7 8 10 9 9 7 4 5 7 7 5 4 3 2
41 40 41 43 44 44 42 42 41 41 40 37 35 34 33 33 33 32 31 31 32 33 33 33 32 30 29 28 27 26 24 23 23 21 19 18 16 15 14 12 11 12 12 11 11 12 12 10 10 9 10 10 10 8 7 7 8 10 9 7 10 9 7 8 8 8 6 5 6 7 8 8 10 10 9 10 10 8 8 7 5 4 3 3 3
40 41 42 43 46 46 44 45 44 44 41 39 38 34 33 34 34 33 31 31 31 31 33 33 31 30 29 27 25 24 24 23 23 23 22 20 18 17 15 15 14 13 13 12 12 13 12 10 10 11 10 10 9 7 7 7 8 8 8 9 11 10 8 8 7 5 4 4 6 6 6 7 9 7 7 10 11 11 9 5 3 2 1 2 2
43 44 43 43 45 46 46 46 45 45 43 42 41 38 36 35 36 36 34 32 32 31 32 32 30 29 28 27 24 22 22 21 22 24 24 22 20 18 17 17 15 14 14 14 14 14 12 11 11 11 10 9 8 7 7 8 6 5 8 11 12 11 10 9 6 4 4 5 7 7 5 7 9 7 7 11 12 11 8 5 3 1 1 1 2
47 47 46 44 46 47 47 47 45 46 46 44 43 43 40 37 36 38 37 36 34 32 32 31 30 30 30 29 26 25 24 22 23 26 27 26 23 21 19 18 16 15 14 15 15 14 13 13 13 12 10 9 8 8 8 8 5 6 8 12 13 11 10 10 6 5 5 5 8 9 7 8 10 9 10 12 13 11 7 4 2 0 1 1 1
50 50 49 47 47 49 48 47 46 47 47 45 44 44 42 39 37 38 40 39 37 35 33 32 31 32 33 33 31 30 28 27 26 27 28 28 26 23 21 19 17 16 16 16 16 15 15 15 14 12 10 9 9 9 9 8 7 8 10 13 13 10 9 10 7 6 6 6 8 10 9 9 12 13 12 13 13 10 6 4 2 1 1 1 1
49 50 51 49 48 50 50 49 49 48 48 46 45 45 44 41 39 39 41 42 40 38 35 34 32 32 34 34 33 32 31 30 29 27 27 27 26 24 23 21 19 17 17 17 17 16 16 16 14 11 10 11 10 10 9 8 9 11 12 13 12 10 9 9 8 6 7 7 8 10 10 10 13 14 11 13 13 10 7 6 3 2 2 2 2
49 49 51 51 50 51 53 52 52 51 49 48 47 46 46 44 42 40 42 43 42 40 38 37 35 33 34 35 35 34 32 31 29 27 26 26 26 25 23 21 20 19 18 18 17 16 17 16 14 12 11 11 10 10 10 10 11 13 13 14 13 12 11 9 9 8 7 7 7 9 10 11 14 14 12 12 13 12 10 8 5 5 6 4 2
50 51 52 52 52 53 54 54 54 53 51 50 49 48 48 46 44 42 43 44 44 42 41 39 37 35 34 35 36 35 34 31 29 28 27 26 26 25 23 22 21 20 19 18 17 16 17 16 14 12 11 10 9 11 12 12 12 13 12 13 14 15 14 12 11 10 9 7 6 7 9 11 12 13 12 12 12 12 12 10 8 9 9 7 4
51 53 53 54 54 54 55 54 54 54 53 51 50 49 49 48 47 45 44 45 45 44 43 41 39 37 35 35 36 35 35 33 30 29 28 27 27 25 24 23 23 21 20 19 18 17 17 16 14 13 11 9 9 12 14 13 13 12 11 12 14 15 16 15 13 11 10 8 5 5 7 9 11 13 13 13 13 12 10 9 9 11 11 9 6
51 52 53 54 55 55 55 55 55 55 54 52 51 50 50 49 48 47 46 45 46 45 45 43 42 40 38 37 36 35 35 34 33 31 30 29 28 27 26 25 24 23 21 20 19 18 17 17 15 13 11 10 10 12 14 13 12 12 12 13 14 14 16 17 15 14 12 10 7 6 6 8 11 12 13 13 14 12 9 9 9 10 11 8 6
51 52 53 53 54 54 54 55 56 55 55 54 53 52 52 51 50 49 48 47 46 46 46 45 44 42 40 39 38 36 35 35 34 33 32 31 30 29 28 27 26 24 23 22 21 19 18 18 16 14 12 11 11 13 14 13 13 13 14 14 14 15 16 17 17 16 14 13 11 9 7 10 12 12 12 12 12 12 10 10 9 9 11 9 7
52 52 52 53 54 54 54 55 56 56 56 56 55 54 53 52 51 50 50 49 48 47 47 46 46 44 42 40 39 38 36 35 34 33 33 32 31 31 30 29 27 26 26 25 23 21 20 19 17 13 11 10 11 14 15 14 14 14 14 14 15 16 17 17 17 16 15 14 13 11 10 12 13 13 12 12 11 11 10 10 10 10 10 10 9
52 53 53 54 55 55 56 56 56 57 58 57 56 56 55 54 53 52 51 50 49 49 48 47 46 45 43 42 41 40 39 37 36 34 33 32 32 32 31 30 29 28 27 25 24 23 21 20 17 14 11 10 12 15 16 15 15 14 13 13 14 17 18 17 16 16 16 15 14 13 13 13 13 13 13 13 12 12 11 11 11 11 12 12 13
51 52 53 55 57 57 57 57 58 58 59 58 58 57 56 55 55 53 52 51 50 49 48 48 47 46 44 43 42 42 41 39 38 35 34 33 33 33 32 31 30 29 27 26 25 24 23 21 18 16 13 11 13 16 17 17 17 15 13 13 14 16 18 18 17 16 17 16 15 15 16 15 13 12 12 13 12 12 12 12 11 10 10 12 13
50 51 53 55 58 58 58 58 58 59 59 59 59 59 58 57 56 54 53 51 51 49 48 48 47 46 46 44 43 43 42 41 40 38 36 35 34 34 33 32 31 30 28 27 26 25 25 23 20 18 15 13 14 17 19 18 17 15 14 14 14 15 17 17 17 18 18 17 16 16 16 15 14 12 12 12 12 11 12 12 11 10 9 10 11
50 52 54 56 57 58 58 58 58 59 59 60 60 60 59 58 57 55 54 52 51 49 47 46 47 47 46 45 44 44 44 42 41 39 37 36 35 34 34 33 32 31 30 28 27 27 26 24 22 20 16 15 16 19 21 20 18 16 14 14 13 14 15 16 18 19 19 18 17 17 17 16 14 13 13 13 12 12 11 11 11 10 10 10 11
52 54 56 56 57 57 57 58 58 59 59 60 60 60 59 58 57 56 55 53 52 49 47 45 46 47 47 46 45 45 44 43 41 40 38 37 37 36 35 34 34 33 31 30 29 29 27 26 25 22 18 16 18 20 22 22 20 17 16 14 14 14 15 15 17 20 20 19 18 18 18 17 16 15 15 14 13 12 12 11 11 11 11 11 12
50 53 54 54 55 56 57 57 58 59 59 59 59 59 59 58 57 56 54 52 50 49 47 46 45 46 47 46 46 45 44 43 42 41 39 39 39 38 37 36 35 34 33 32 31 31 29 28 26 24 21 19 19 21 23 23 21 19 18 17 16 16 17 17 17 20 21 21 19 19 18 18 18 18 17 16 14 13 13 13 12 12 12 12 12
48 50 52 54 55 56 57 58 58 59 58 58 58 58 59 58 57 56 54 52 50 49 48 47 46 46 46 46 45 45 45 44 43 42 41 40 40 39 38 37 36 35 34 34 33 32 31 30 28 26 23 21 20 22 23 24 23 22 20 19 19 18 19 18 18 20 22 22 21 20 19 18 18 19 18 16 15 14 14 13 13 13 13 13 13
47 50 52 54 56 57 57 58 58 58 57 57 57 57 58 57 57 56 55 53 52 50 48 47 46 45 45 45 45 46 46 45 44 43 42 42 41 40 39 38 38 37 36 35 34 33 32 31 29 27 25 22 22 22 23 24 24 24 22 22 21 20 20 20 20 21 23 23 23 21 20 18 18 18 17 16 15 14 14 14 14 14 14 13 13
47 50 53 54 55 56 56 56 55 55 55 56 57 57 57 57 57 56 55 54 53 51 49 47 46 45 45 44 44 45 45 46 45 44 44 43 42 41 40 40 39 39 38 36 35 35 34 33 31 29 27 25 24 24 24 24 25 25 24 24 23 22 22 22 22 22 24 24 23 22 21 19 18 18 16 16 15 14 14 14 13 13 12 12 12
51 53 54 53 54 55 54 53 52 53 55 56 56 57 57 57 57 55 55 55 53 51 49 47 46 46 45 43 44 44 45 46 46 45 45 44 44 43 42 41 41 40 39 38 37 36 35 34 33 32 29 27 26 26 25 25 25 25 25 25 25 24 23 24 23 23 23 24 23 22 21 20 20 19 17 15 15 14 14 14 13 12 12 12 12
53 54 53 52 52 52 51 52 52 53 54 55 56 57 57 56 56 56 55 54 53 51 49 48 47 46 45 44 44 44 45 46 46 46 46 45 45 44 43 42 42 41 40 39 38 37 36 36 35 34 32 30 29 28 28 27 25 25 26 26 26 25 24 24 24 23 23 24 23 22 21 20 20 19 17 15 15 15 15 14 13 12 13 13 13
53 52 50 48 48 49 50 53 53 53 53 54 55 56 55 56 56 56 55 54 52 51 50 50 48 47 46 45 44 44 45 46 46 47 46 46 46 45 44 43 43 42 41 40 40 39 38 38 37 36 34 32 31 30 30 28 26 25 26 26 26 25 24 24 24 23 23 23 24 23 21 20 21 20 18 17 16 16 15 15 14 13 13 14 14
49 47 44 44 46 48 52 53 54 54 53 54 55 55 55 55 55 55 54 53 53 52 51 51 50 49 48 46 45 44 45 46 46 47 46 46 46 46 45 44 43 43 42 41 41 40 40 39 38 37 36 34 33 33 32 30 28 26 27 27 27 26 25 24 24 24 24 23 24 24 22 22 22 21 19 18 17 17 16 15 15 14 13 14 15
46 45 42 43 46 49 51 52 54 54 54 55 55 55 56 55 55 54 53 53 53 52 52 51 51 50 49 48 46 45 44 44 46 46 46 46 46 46 45 45 44 43 43 42 42 41 40 40 39 38 37 36 35 35 34 33 31 28 27 28 28 26 24 23 24 25 24 24 24 23 22 23 24 23 20 19 18 17 16 16 15 14 13 14 14
42 43 43 44 45 48 50 51 53 54 54 55 54 55 56 55 55 54 53 53 53 52 52 52 51 51 51 49 47 45 44 43 44 46 46 47 47 47 46 45 44 44 43 43 42 41 41 40 40 39 39 38 37 37 37 36 34 32 29 28 29 27 24 23 23 24 25 25 24 24 23 22 23 23 21 19 18 17 16 15 14 13 13 13 14
40 41 43 45 45 48 50 50 51 52 53 53 54 54 55 55 54 54 54 54 54 53 53 52 52 52 52 50 47 46 45 44 44 46 48 48 48 48 47 46 45 45 44 43 42 42 41 41 41 40 40 40 40 40 40 38 37 34 31 28 28 27 24 22 23 24 26 26 25 25 24 23 22 23 22 20 18 16 14 14 12 11 12 13 15
43 43 44 46 47 48 50 50 50 51 52 52 53 54 55 55 55 54 54 55 54 53 53 53 53 53 52 50 48 47 46 46 46 47 48 49 49 48 48 47 46 45 44 44 43 43 43 42 42 42 42 42 42 42 42 40 38 35 32 28 28 28 26 24 24 24 25 27 26 26 26 24 23 23 22 20 17 14 13 13 12 12 14 15 16
42 45 45 47 48 50 50 50 50 50 51 52 52 53 54 55 54 54 55 55 54 54 54 54 54 53 51 50 48 48 48 47 47 47 48 49 49 49 49 48 47 47 45 45 45 44 44 43 43 43 43 44 44 43 43 41 39 36 31 29 30 31 29 27 26 25 25 26 27 27 26 25 24 23 21 18 16 15 14 14 14 15 16 17 18
41 41 43 45 47 49 50 49 49 48 49 51 52 53 54 54 54 55 56 55 55 55 55 55 54 53 51 50 49 48 49 48 48 48 49 49 50 50 50 49 48 47 47 46 46 46 45 44 44 44 44 45 45 44 43 42 40 37 32 30 32 33 30 29 27 26 26 28 28 28 27 26 25 23 21 19 18 17 16 16 17 17 18 17 18
41 41 41 43 46 49 50 49 46 45 47 49 51 53 54 53 54 55 56 56 56 56 56 55 54 53 52 50 49 49 49 49 49 49 49 49 50 50 50 50 49 48 47 47 46 46 46 45 45 45 45 45 45 44 43 42 42 40 34 31 32 32 31 30 29 28 29 30 30 29 28 27 24 22 22 21 19 18 17 18 18 18 18 17 17
42 43 44 45 46 48 49 46 44 43 44 47 50 51 51 50 52 54 56 57 57 57 57 56 54 54 52 51 50 50 50 50 49 49 48 49 50 50 50 50 49 48 47 47 47 47 46 46 46 46 46 45 45 44 43 42 43 42 36 31 30 32 33 31 29 30 31 30 30 29 28 26 24 22 22 21 20 19 19 20 19 19 19 17 15
39 40 42 46 47 48 47 46 45 45 44 46 48 49 49 50 53 55 56 57 57 57 57 56 55 54 53 51 50 50 50 50 49 49 49 49 50 50 50 49 49 48 48 48 48 47 47 47 47 46 45 45 44 43 42 41 41 42 39 33 28 29 33 33 30 31 32 30 29 28 27 26 24 23 22 22 22 21 21 21 21 21 20 18 17
35 38 41 46 48 48 46 46 48 48 46 46 46 47 48 51 54 54 55 56 56 56 56 56 55 54 54 53 52 51 50 50 49 49 49 49 49 50 50 49 49 49 49 48 48 47 47 47 46 45 45 44 43 42 41 40 38 38 39 36 29 26 30 33 33 32 30 29 28 27 27 26 25 24 24 24 23 22 21 22 22 21 20 20 21
25 32 38 42 46 47 46 48 50 50 49 47 46 47 49 51 53 54 54 54 54 55 55 55 56 55 55 54 53 52 51 50 50 50 49 49 49 49 49 49 49 49 49 49 49 48 47 46 45 45 44 43 42 42 41 39 36 34 34 33 31 29 29 31 32 31 29 28 28 27 26 26 26 26 26 25 24 22 21 22 23 23 22 23 23
13 23 31 36 41 43 45 47 49 49 49 47 47 48 50 51 52 53 53 53 54 54 55 55 55 56 56 55 54 53 52 51 51 51 50 49 48 47 47 47 48 49 49 48 48 47 46 45 44 44 42 41 41 41 40 38 35 30 28 27 29 31 31 30 29 30 29 28 28 27 26 27 28 27 27 26 25 23 22 22 23 24 24 25 25
5 10 17 23 28 33 38 43 46 47 47 46 46 47 48 49 51 51 52 53 54 54 54 55 55 55 56 56 55 55 53 53 52 51 50 49 48 46 45 45 46 47 47 46 46 46 45 44 43 42 41 40 41 40 39 37 32 27 25 25 28 31 31 29 28 29 30 29 28 27 27 28 28 28 27 25 25 24 22 22 23 25 26 27 26
7 5 4 6 11 17 25 33 39 44 47 48 46 45 46 48 49 51 52 53 54 53 53 53 54 55 56 56 56 56 55 54 54 52 50 49 47 46 45 45 45 44 44 45 45 45 44 43 42 41 40 40 41 38 36 34 28 24 25 26 28 29 28 27 28 29 29 30 29 27 28 28 28 28 26 24 24 25 23 23 24 25 28 28 26
4 4 1 2 5 8 12 17 24 31 41 47 47 47 48 49 50 52 53 52 52 52 52 53 54 55 55 56 56 56 56 56 54 52 51 49 47 46 45 44 42 42 43 44 44 43 42 42 41 40 39 39 37 34 31 28 25 24 25 26 26 25 23 24 27 29 30 29 27 28 29 28 27 27 26 24 25 25 23 23 25 27 29 28 26
3 2 1 2 5 9 9 9 12 17 27 36 42 45 48 50 52 53 53 51 51 52 53 54 55 56 56 56 56 56 56 55 54 52 51 49 47 46 44 41 40 41 42 42 42 41 41 40 39 37 36 34 31 28 26 25 24 25 25 25 23 21 20 22 26 28 29 28 27 29 29 26 25 26 25 25 25 24 22 23 26 27 27 26 24
5 4 3 3 4 7 10 10 10 11 15 23 33 41 45 47 50 52 51 51 52 53 54 54 55 56 56 56 56 56 55 55 54 53 51 49 48 46 42 39 39 40 40 41 41 41 40 39 37 35 32 30 27 25 24 23 24 23 22 21 20 19 19 21 23 25 27 26 27 27 26 24 23 24 24 24 24 23 22 24 25 24 24 23 22
9 7 6 5 5 6 9 12 13 12 12 15 23 34 42 45 47 49 48 47 49 51 52 53 54 55 55 54 54 54 55 55 53 51 50 49 46 43 40 39 39 40 40 41 41 40 39 37 35 32 30 28 26 24 24 24 23 21 19 19 19 19 19 20 21 22 23 22 23 23 22 22 22 22 22 22 22 23 25 26 24 22 21 21 21
9 9 7 5 4 5 7 9 10 11 12 13 17 26 35 42 46 47 46 43 43 45 48 50 52 53 53 53 52 52 53 52 50 49 50 48 44 40 39 40 41 40 40 40 40 39 37 34 32 31 30 27 24 23 24 24 22 18 17 17 17 18 18 18 20 21 21 20 20 20 20 20 19 19 19 20 22 24 25 24 22 20 20 20 21
7 7 7 5 4 4 4 5 6 8 10 12 16 21 29 36 40 42 42 41 40 40 43 45 47 49 50 50 51 51 50 49 48 48 47 44 41 40 41 41 40 39 38 38 37 35 33 31 30 30 28 25 22 22 23 23 21 19 17 16 17 18 19 19 21 21 20 20 20 19 18 18 18 18 19 21 22 23 22 20 19 19 19 19 21
8 8 8 7 7 8 7 6 6 8 11 14 17 20 24 28 30 31 33 35 36 38 40 42 43 44 46 47 49 49 49 48 47 46 44 42 41 41 40 39 38 37 36 34 32 31 29 28 28 27 25 23 22 22 22 22 22 21 19 18 19 20 21 21 20 19 20 21 20 19 18 19 19 20 21 22 21 20 18 18 17 17 17 17 17
8 8 8 9 9 10 10 9 8 8 11 15 18 21 23 25 27 28 28 30 31 34 37 40 40 41 42 45 48 49 50 49 48 46 44 42 40 38 36 35 34 33 32 30 29 28 27 26 26 24 23 23 23 23 22 23 24 22 21 21 22 23 22 21 19 19 21 22 21 20 19 20 20 20 20 20 18 17 16 15 14 14 14 14 13
5 6 7 9 9 9 10 9 8 9 11 14 16 19 23 26 28 30 32 32 33 34 35 37 40 42 43 45 48 51 51 50 48 45 41 38 35 32 31 30 28 26 26 26 25 24 24 23 21 21 21 22 23 22 21 22 22 20 18 18 19 20 20 19 18 19 22 22 21 20 20 20 19 19 18 17 16 14 13 12 12 13 13 12 11
6 6 6 6 5 5 7 7 7 8 12 15 16 17 21 25 29 31 32 34 36 37 34 32 35 41 43 44 45 47 48 47 44 41 39 35 31 28 26 25 24 23 22 21 20 19 18 17 17 16 17 18 18 17 18 21 20 17 15 15 15 15 16 16 18 20 21 21 20 19 19 19 18 17 16 15 13 12 11 11 12 13 13 11 10
10 9 9 8 6 3 4 5 6 8 11 15 17 16 18 23 29 32 32 34 39 41 38 33 32 35 36 36 38 39 40 39 37 35 34 33 30 27 25 23 22 21 20 19 17 16 15 14 14 15 16 16 15 13 15 18 18 16 16 16 16 15 15 16 18 20 20 20 19 19 19 18 17 16 15 13 12 11 12 12 13 13 13 11 10
Wind_Direction
199 199 200 200 200 200 201 201 203 206 208 210 210 210 209 207 207 207 205 203 202 203 204 204 205 206 205 206 207 207 206 205 206 209 212 217 223 225 221 215 212 216 222 225 230 231 231 231 228 228 225 224 233 242 248 255 251 250 265 259 182 169 182 179 168 162 161 172 180 152 115 119 134 141 154 167 169 170 154 145 139 126 106 76 54
197 199 201 201 201 201 201 202 203 205 206 209 210 208 209 209 208 206 205 204 204 205 206 207 208 208 207 206 207 207 206 207 207 209 213 218 224 227 225 223 218 220 228 230 231 231 229 227 228 232 230 229 235 241 250 252 249 251 252 221 184 184 195 184 172 165 162 171 170 146 124 130 140 138 145 152 150 150 151 148 138 117 76 34 23
195 197 198 200 201 201 202 204 206 207 208 209 208 206 207 208 208 206 205 205 206 208 209 211 211 210 211 211 210 209 210 211 209 210 213 216 221 224 225 223 222 225 230 233 233 233 232 227 229 234 232 233 239 246 252 250 250 243 221 195 186 191 190 172 162 168 184 192 179 161 137 144 148 148 167 164 153 155 159 159 148 131 53 12 349
194 196 197 199 200 200 202 205 207 207 207 207 205 204 205 208 210 209 206 206 209 211 213 214 214 212 214 216 215 213 214 214 211 211 214 216 219 223 224 224 224 228 231 234 233 232 232 228 233 237 233 237 243 251 253 250 248 224 202 189 185 193 186 164 150 164 189 197 191 182 159 161 157 141 156 162 159 164 166 168 174 176 50 25 298
194 196 198 200 200 200 202 204 206 206 206 207 205 203 205 209 213 211 209 208 210 213 215 214 215 214 213 213 215 215 216 216 212 211 213 216 220 223 224 224 225 229 231 233 231 229 229 228 234 236 235 240 245 250 250 244 229 200 195 193 193 202 189 169 160 160 167 182 187 182 169 172 168 141 136 152 162 165 158 161 177 130 58 49 265
196 197 198 200 201 201 202 204 205 205 207 208 206 206 207 211 214 213 212 211 211 214 215 215 215 215 212 211 212 212 213 215 213 211 212 216 220 222 224 223 223 226 228 230 229 226 226 229 233 234 236 240 242 250 248 236 219 199 194 197 201 211 192 175 176 170 167 174 182 186 183 181 175 157 140 147 158 161 160 173 178 114 71 73 144
197 197 197 198 201 201 202 203 204 206 209 210 208 208 209 211 213 213 213 212 212 213 215 216 216 215 215 214 213 213 213 215 216 214 215 218 220 221 222 221 221 224 225 227 227 223 223 228 234 234 236 240 244 251 244 229 219 206 201 200 200 212 206 189 191 191 183 178 181 191 195 188 179 176 167 158 162 167 174 186 183 171 175 164 160
197 197 197 198 200 202 203 204 206 208 209 209 209 209 209 211 213 214 214 214 214 214 215 217 219 217 216 216 216 217 218 218 217 216 217 219 220 221 221 221 221 223 224 224 225 223 222 227 234 235 236 242 250 248 235 224 221 215 210 203 197 209 219 211 208 214 212 200 190 186 189 188 184 190 193 180 176 176 179 190 191 185 190 190 187
198 198 198 199 200 202 205 206 207 208 208 209 210 211 211 212 213 214 215 215 215 216 216 218 221 220 217 216 216 218 221 222 219 218 218 217 218 219 219 220 222 223 223 223 224 225 226 230 234 235 238 247 248 239 229 225 225 221 215 206 202 208 216 218 220 225 227 222 207 187 182 185 188 194 197 193 189 181 180 194 198 192 194 197 204
199 200 200 200 202 204 206 207 207 207 209 211 213 213 213 212 212 213 215 216 217 218 219 220 222 223 220 216 217 219 220 221 220 218 218 216 215 216 217 220 222 221 220 221 224 227 230 232 234 236 240 243 238 231 229 227 226 221 210 205 207 210 213 219 226 230 227 222 213 199 191 193 192 191 192 192 191 186 181 187 195 198 199 201 208
199 201 202 202 203 205 206 206 206 206 208 211 212 212 213 213 213 214 216 218 219 220 221 222 223 224 222 217 218 219 219 219 218 216 216 215 213 215 217 220 222 223 220 221 224 226 229 233 234 236 239 240 235 231 231 229 225 219 210 206 210 213 215 220 226 230 230 225 220 216 209 207 203 196 195 194 192 192 185 174 181 195 202 210 215
199 201 202 202 203 204 205 206 206 205 206 208 210 212 212 213 214 214 216 218 220 221 222 224 225 225 223 220 219 220 219 219 218 216 215 214 212 214 216 219 221 223 223 225 226 226 227 229 232 235 237 239 236 233 232 227 220 216 212 210 212 215 218 222 224 228 231 233 231 231 223 212 209 207 204 199 197 199 195 182 179 186 198 208 204
198 200 201 202 202 203 205 206 206 205 205 206 208 210 212 214 215 215 215 217 219 221 223 225 226 226 224 222 220 221 220 220 220 218 216 215 214 214 216 217 218 219 222 224 226 227 228 228 231 235 238 240 235 233 232 225 220 215 209 209 211 214 220 224 225 226 230 236 235 232 225 210 206 211 211 208 208 209 209 206 203 206 210 214 209
197 199 200 202 203 204 205 206 206 206 207 207 208 209 211 213 214 216 216 217 219 221 224 225 226 227 226 223 221 221 221 221 222 221 219 217 216 217 219 220 218 219 223 224 224 227 228 228 232 236 240 241 232 231 231 226 224 218 207 205 208 212 219 223 224 224 225 232 232 226 221 212 207 213 216 216 219 219 222 225 227 230 230 228 227
197 199 200 203 204 205 206 207 207 207 207 207 208 209 211 212 214 216 216 217 218 221 223 225 227 227 227 224 221 221 221 222 223 223 222 220 219 220 222 223 222 224 227 228 227 228 229 230 232 235 238 238 231 231 230 225 224 221 209 206 207 208 215 218 220 220 220 225 229 224 221 217 214 216 217 220 227 230 231 232 234 236 237 235 236
197 198 200 204 206 206 207 207 208 208 208 208 208 209 210 212 214 216 217 218 218 220 223 226 228 228 227 225 222 221 221 222 224 224 224 223 223 223 224 224 226 228 230 230 229 231 233 233 233 233 234 236 233 233 231 225 223 223 216 213 211 209 212 214 216 219 219 221 226 224 221 221 221 223 223 223 231 239 242 242 239 236 240 244 244
198 199 201 204 206 207 207 208 208 208 208 208 209 210 211 212 214 215 217 218 219 221 223 226 228 228 227 227 224 222 221 222 224 224 224 224 225 226 226 226 227 229 230 231 230 232 235 235 234 232 232 234 233 233 233 228 223 224 223 221 220 218 217 216 216 220 222 221 224 224 222 222 225 230 232 233 240 246 247 244 239 237 241 246 248
198 201 203 204 205 207 207 208 209 209 209 210 210 211 212 214 215 216 216 217 219 221 224 226 228 227 227 227 226 224 223 223 224 225 224 224 225 226 227 227 228 229 230 230 231 233 234 235 234 231 231 234 234 232 232 230 225 224 226 227 227 227 227 223 220 222 223 222 222 223 225 225 227 231 234 237 242 244 241 240 240 242 244 247 250
198 200 203 204 205 207 207 208 210 210 211 211 211 211 212 214 215 216 218 220 221 222 224 226 227 227 227 227 227 226 225 225 225 226 225 224 225 226 227 228 228 229 229 230 231 232 233 233 232 230 230 233 234 231 230 229 226 224 225 227 228 229 231 230 226 225 225 225 223 223 226 227 226 228 232 235 238 239 241 244 246 248 250 250 250
197 199 202 204 206 208 209 209 210 210 211 211 210 210 211 213 215 216 218 220 221 223 224 226 226 227 227 227 228 227 227 226 226 226 227 226 226 226 227 228 229 229 229 230 231 231 231 231 231 230 230 232 233 230 230 229 226 224 224 225 227 230 232 232 229 228 227 226 226 225 227 226 223 225 229 234 237 241 245 249 250 251 250 249 249
198 200 203 205 207 208 210 211 210 210 210 209 209 210 212 213 214 215 216 217 219 222 224 225 226 226 227 227 228 228 227 227 227 227 228 227 226 227 228 229 230 231 231 231 232 231 231 231 231 231 231 232 233 232 232 231 228 226 224 225 226 229 232 232 229 228 227 226 227 227 229 229 227 226 226 229 233 237 242 244 245 245 245 247 251
200 202 206 207 207 208 209 209 208 207 207 207 209 210 211 213 214 215 215 216 219 222 224 225 225 225 227 228 229 229 228 228 228 228 229 228 227 227 228 229 230 232 232 233 233 232 231 230 231 232 232 233 234 234 234 233 232 229 226 225 225 226 229 230 229 228 227 225 226 228 231 232 233 232 229 228 231 234 237 240 241 245 250 254 257
203 205 207 208 208 208 208 206 206 206 207 207 209 210 212 213 214 214 215 217 219 222 224 225 225 225 227 228 229 229 228 228 228 229 229 229 228 228 229 230 231 232 232 233 234 234 232 231 232 233 233 233 233 234 234 235 235 234 231 228 225 224 227 229 229 229 227 226 226 227 229 232 234 235 232 232 235 238 242 244 245 250 259 262 263
204 206 208 208 208 207 205 204 205 206 207 207 208 210 212 212 213 214 216 218 219 221 222 223 224 226 227 227 228 229 229 228 229 229 229 228 228 229 230 231 232 232 233 233 234 234 234 233 233 234 233 233 234 235 235 235 236 238 237 233 229 226 226 228 231 232 231 230 229 228 229 232 232 231 232 235 239 242 246 249 251 256 263 267 267
204 206 206 205 205 204 203 203 205 205 206 207 208 210 212 212 213 215 216 217 219 220 221 222 223 225 226 226 227 228 229 229 229 229 229 229 228 229 231 231 232 233 234 234 234 234 234 233 234 234 235 235 236 237 238 237 238 239 239 238 233 229 228 230 231 233 234 233 232 231 232 232 232 231 231 236 241 245 249 252 255 260 267 273 273
204 205 203 202 202 203 203 203 204 205 206 207 209 211 213 214 215 215 216 217 218 220 220 220 221 223 224 226 227 228 229 229 229 228 228 228 228 229 231 231 232 233 234 235 235 235 236 236 235 235 236 238 239 241 241 240 240 240 241 240 237 232 231 233 234 234 235 235 235 233 233 234 236 234 233 239 246 249 251 252 256 264 274 280 280
204 203 201 200 201 202 204 204 204 205 207 209 212 213 214 215 215 215 216 217 218 219 219 219 220 221 223 226 227 228 229 229 230 228 228 228 228 229 230 231 232 233 234 235 236 237 238 238 238 237 238 240 242 243 244 243 241 240 242 242 239 233 232 236 238 236 235 236 236 233 231 233 236 237 238 242 247 250 252 257 264 273 279 282 284
202 202 201 201 201 202 204 205 205 206 209 211 213 214 215 216 216 215 215 217 218 218 218 219 220 221 223 225 227 228 229 230 230 229 228 228 229 229 230 231 232 233 234 236 237 238 239 239 239 240 240 242 244 245 245 244 242 240 240 242 240 235 234 238 242 240 238 236 234 232 230 230 235 239 242 243 246 250 257 265 271 275 278 281 287
202 203 203 203 202 202 205 207 207 207 209 210 212 214 215 216 217 216 216 217 218 218 218 218 219 222 224 225 227 228 229 229 229 229 228 228 229 229 230 231 232 234 235 236 237 239 240 240 241 241 241 243 245 246 247 246 244 242 240 241 241 236 235 242 246 245 243 239 235 232 230 231 236 240 241 242 245 252 261 268 272 275 280 285 288
204 205 205 205 205 204 207 209 208 209 210 211 212 214 215 216 217 217 217 217 217 217 218 218 220 224 225 224 225 227 227 228 228 229 229 229 229 229 230 231 233 235 236 236 236 238 239 241 242 242 242 244 246 249 249 248 247 245 242 242 242 237 235 241 244 244 245 244 240 235 231 232 237 238 239 241 246 252 259 264 270 276 281 284 285
206 206 206 206 205 205 208 210 210 211 212 213 215 217 217 217 217 217 218 217 216 217 219 220 222 224 223 222 225 226 226 227 228 229 229 229 229 229 230 232 233 235 236 236 236 237 239 240 241 242 244 245 248 251 251 250 247 243 241 244 245 239 235 240 243 243 245 247 246 240 234 234 238 238 238 240 242 246 251 259 266 269 271 275 278
206 207 206 205 203 204 207 210 212 214 216 217 219 219 218 218 218 219 219 217 216 218 220 222 224 223 221 223 225 226 226 227 228 229 229 228 228 228 229 231 232 234 236 236 236 238 240 241 241 243 245 247 251 253 253 251 244 236 238 246 246 238 236 241 246 248 249 249 247 243 237 236 238 238 237 237 239 245 252 259 261 261 263 268 271
205 207 207 205 203 205 209 212 215 219 221 223 222 220 220 221 222 222 219 216 216 218 220 223 223 221 221 224 226 225 226 227 228 229 229 227 226 227 228 229 232 234 235 235 237 238 240 241 242 244 246 249 252 254 253 250 240 235 240 247 244 236 234 240 248 253 254 251 246 241 237 236 236 235 235 237 240 246 254 260 262 262 265 268 271
206 207 207 206 206 208 211 215 219 222 225 226 224 223 224 225 224 221 218 216 217 219 220 221 222 221 221 223 225 226 227 227 228 228 227 227 226 226 227 229 231 233 233 234 236 238 240 242 243 245 247 250 253 255 253 247 241 242 246 244 243 239 233 235 246 253 256 254 247 241 237 236 234 232 233 239 243 245 251 259 263 265 267 266 265
205 206 206 206 207 210 213 217 220 220 223 225 225 225 227 226 223 220 217 217 218 219 219 219 220 220 221 221 223 226 227 227 227 226 226 227 227 226 227 228 230 231 233 235 237 238 240 242 244 246 247 250 253 254 251 246 245 249 247 238 241 243 234 234 243 250 255 255 248 243 241 237 233 230 233 241 245 246 250 256 260 266 268 261 256
206 207 208 207 208 210 214 217 219 218 221 224 225 226 226 226 223 220 218 219 218 218 219 219 219 220 220 221 222 225 226 226 225 225 225 226 227 227 228 228 230 232 233 235 236 238 240 241 243 245 247 250 253 252 250 247 248 252 245 236 241 246 237 234 239 246 253 254 248 245 242 236 231 230 235 242 244 246 252 257 262 269 267 254 249
215 214 212 209 209 212 215 217 218 218 220 222 224 225 225 225 224 221 220 219 218 218 219 220 220 220 220 221 222 223 225 225 224 224 225 226 226 227 228 228 230 231 233 235 236 237 239 240 242 244 246 248 251 251 249 249 249 250 247 244 248 248 240 236 238 242 248 251 248 247 242 235 231 231 236 240 243 249 257 262 266 269 261 249 249
222 221 220 218 218 220 221 220 218 218 221 224 225 224 224 223 223 222 221 220 219 220 221 221 222 222 221 221 221 222 224 224 224 224 224 225 225 226 228 228 230 232 233 235 236 237 238 239 241 243 245 248 250 251 251 250 249 250 251 254 255 249 240 238 240 242 244 246 246 247 244 237 234 235 240 246 249 252 258 263 267 265 257 254 261
154 204 220 225 228 232 234 232 227 224 224 226 227 227 225 224 224 224 222 220 221 224 224 225 226 226 223 222 221 221 223 223 224 224 224 225 225 225 227 228 230 232 234 235 236 236 237 239 240 242 245 247 248 249 250 250 249 251 254 254 253 248 242 241 243 244 245 244 243 245 244 239 235 239 248 255 254 252 255 259 261 260 260 265 273
108 130 187 227 235 238 239 240 238 234 230 230 231 231 229 228 229 226 223 223 226 229 230 230 229 227 224 222 221 221 221 222 223 224 224 224 225 224 225 226 228 230 232 234 235 236 237 238 240 242 243 244 245 246 247 248 248 252 253 250 247 247 246 246 244 244 248 247 242 240 240 239 239 245 254 258 253 249 252 256 259 263 268 273 277
93 106 108 298 283 265 246 240 242 240 237 235 234 233 233 234 232 228 226 229 232 233 233 231 229 226 224 223 221 221 220 220 221 223 223 222 223 224 224 224 226 228 229 231 233 234 236 237 239 240 241 241 242 242 243 245 247 250 249 246 246 247 248 246 242 245 252 250 239 233 235 239 245 251 255 256 252 248 249 255 261 266 271 274 278
66 68 36 286 294 295 284 257 241 239 241 240 237 235 235 234 232 230 232 235 234 233 231 230 228 226 225 223 221 220 219 217 216 219 220 220 221 221 221 223 224 225 227 228 230 232 233 235 237 238 238 238 238 238 240 244 247 248 245 243 244 244 244 243 243 248 252 245 232 230 236 242 250 254 255 255 250 245 247 257 264 268 270 274 278
39 39 31 13 331 315 310 298 276 256 249 246 242 239 236 232 230 232 234 234 232 231 230 228 226 225 224 223 221 218 216 213 212 215 217 218 217 217 217 220 222 223 224 225 226 228 230 232 233 234 233 234 235 238 242 246 246 244 240 238 238 237 238 242 246 250 248 238 230 232 237 244 251 255 255 252 244 240 252 266 271 271 271 274 279
8 10 16 16 352 322 311 305 297 286 274 261 251 245 239 234 232 232 232 229 228 227 226 225 225 224 223 221 218 215 212 209 209 211 214 215 214 213 214 217 220 221 221 221 222 224 226 228 230 230 230 232 236 239 242 242 239 235 231 230 231 233 236 242 244 242 237 233 231 233 239 247 254 253 248 242 238 245 261 272 274 272 273 278 284
349 347 350 357 343 311 298 293 287 280 274 270 263 252 244 239 236 234 230 227 226 226 225 224 223 222 220 217 213 209 206 204 205 209 212 211 210 209 211 214 216 217 218 218 219 221 223 226 228 231 233 234 235 236 237 234 228 224 224 226 229 233 236 236 232 228 226 227 228 232 242 249 248 242 237 238 246 258 266 271 272 274 279 285 288
325 313 311 311 287 265 261 257 249 239 236 243 249 248 244 241 238 234 231 227 225 224 223 222 220 217 214 210 205 200 198 199 203 207 208 207 206 208 210 211 211 213 216 217 218 219 220 223 227 230 231 230 228 229 230 226 219 214 216 220 225 227 225 221 218 218 221 223 225 233 243 244 238 235 239 249 260 266 269 271 274 280 285 288 288
315 299 288 277 261 251 248 240 228 217 212 216 222 227 231 231 229 227 227 225 224 223 220 217 214 211 206 201 196 192 191 194 197 199 200 202 205 206 207 207 207 210 212 214 215 216 216 219 222 224 223 220 219 222 221 217 214 211 209 210 214 216 213 210 213 219 221 223 228 237 242 240 238 242 250 259 266 269 269 273 277 283 286 287 287
317 303 284 269 257 250 249 246 239 230 221 216 216 218 218 216 213 211 211 210 210 212 212 209 204 199 194 191 189 189 189 190 191 192 194 197 200 202 204 205 206 206 204 204 207 210 213 216 217 216 214 213 215 218 218 215 213 210 206 205 208 210 212 215 221 224 222 225 232 238 239 240 245 252 258 265 267 267 269 272 275 278 281 284 287
347 335 308 285 266 247 236 228 222 229 232 228 224 222 217 213 210 208 206 204 199 195 195 196 194 188 184 184 185 187 187 187 187 187 189 190 192 196 200 200 199 198 198 199 202 205 209 212 212 212 212 212 214 218 220 218 216 213 208 206 207 210 215 222 225 224 223 229 236 239 241 245 252 258 263 264 263 262 263 267 270 272 276 280 282
32 23 3 338 314 279 254 234 217 227 237 237 235 233 227 224 220 213 208 207 203 192 182 179 182 181 180 180 180 180 181 181 181 182 182 182 183 186 189 190 189 190 194 198 201 202 203 204 207 212 216 216 218 222 222 218 214 213 210 208 209 213 217 221 221 220 224 233 239 243 246 250 255 258 259 256 255 256 258 264 270 271 272 275 276
44 43 36 30 24 350 289 259 234 228 232 233 233 233 228 222 216 207 201 203 204 195 183 177 177 175 175 177 175 172 172 172 172 174 178 177 176 176 180 185 190 190 191 193 195 196 198 199 201 205 209 212 217 221 220 215 211 208 205 205 209 214 218 220 219 219 226 238 246 248 250 252 253 252 249 250 256 258 260 266 270 268 268 269 266